�N����,����,�~����,�C��,���x,�C��,����,���ϕ���,�ő�u�ԕ���,�ő厞����,���˗�,�I�_���x,�n�����x,�ő啗���N��,DTYPE
"23/05/14","00:10",0.0,14.6,96.8,1010.9,325.9,1.2,1.4,311.6,0.00,14.1,16.9,"00:02:26",1
"23/05/14","00:20",0.0,14.6,96.9,1010.9,322.8,1.1,1.3,321.2,0.00,14.2,16.7,"00:13:20",1
"23/05/14","00:30",0.0,14.5,97.0,1010.9,312.4,1.3,1.6,306.0,0.00,14.1,16.6,"00:23:16",1
"23/05/14","00:40",0.0,14.5,97.0,1011.2,307.5,1.2,1.6,319.3,0.00,14.1,16.9,"00:31:54",1
"23/05/14","00:50",0.0,14.6,97.1,1010.9,293.0,1.3,1.6,304.2,0.00,14.2,16.8,"00:47:10",1
"23/05/14","01:00",0.0,14.6,97.2,1010.7,289.4,1.2,1.7,316.6,0.00,14.2,16.8,"00:50:54",1
"23/05/14","01:10",0.0,14.5,97.2,1010.4,309.0,1.2,1.7,309.6,0.00,14.1,16.7,"01:01:02",1
"23/05/14","01:20",0.0,14.6,97.3,1010.2,286.7,1.1,1.7,280.5,0.00,14.2,16.8,"01:19:38",1
"23/05/14","01:30",0.0,14.6,97.4,1010.2,296.7,1.3,1.6,314.4,0.00,14.2,16.7,"01:22:32",1
"23/05/14","01:40",0.0,14.6,97.4,1009.7,269.4,0.9,0.9,269.4,0.00,14.2,16.5,"01:39:50",1
"23/05/14","01:50",0.0,14.6,97.4,1009.5,297.0,1.1,1.1,297.0,0.00,14.2,16.6,"01:43:44",1
"23/05/14","02:00",0.0,14.5,97.5,1009.5,284.5,0.8,1.0,276.2,0.00,14.1,16.7,"01:53:50",1
"23/05/14","02:10",0.0,14.5,97.6,1009.3,275.2,1.0,1.0,272.0,0.00,14.2,16.7,"02:06:42",1
"23/05/14","02:20",0.0,14.6,97.6,1009.3,291.3,1.2,1.3,314.7,0.00,14.3,16.8,"02:19:06",1
"23/05/14","02:30",0.0,14.5,97.7,1008.8,297.4,1.1,1.3,309.0,0.00,14.2,16.7,"02:26:40",1
"23/05/14","02:40",0.0,14.5,97.7,1008.8,287.3,1.1,1.4,303.3,0.00,14.2,16.5,"02:39:24",1
"23/05/14","02:50",0.0,14.6,97.8,1008.8,282.7,1.1,1.3,275.9,0.00,14.3,16.7,"02:49:44",1
"23/05/14","03:00",0.0,14.6,97.8,1008.8,285.6,1.3,1.7,261.2,0.00,14.3,16.6,"02:56:26",1
"23/05/14","03:10",0.0,14.6,97.9,1008.6,302.1,0.8,1.8,317.4,0.00,14.3,16.7,"03:08:56",1
"23/05/14","03:20",0.0,14.6,97.9,1009.0,293.7,1.1,1.7,318.7,0.00,14.3,16.6,"03:15:56",1
"23/05/14","03:30",0.0,14.6,97.9,1008.8,290.6,1.1,1.4,304.1,0.00,14.3,16.5,"03:24:14",1
"23/05/14","03:40",0.0,14.6,98.0,1008.6,305.1,1.3,1.9,311.4,0.00,14.3,16.3,"03:36:20",1
"23/05/14","03:50",0.0,14.7,97.5,1008.3,313.7,1.5,2.1,311.7,0.00,14.3,16.4,"03:44:30",1
"23/05/14","04:00",0.0,14.6,98.0,1008.8,303.0,1.3,1.8,299.3,0.00,14.3,16.4,"03:55:14",1
"23/05/14","04:10",0.0,14.8,97.5,1008.3,281.0,1.2,1.8,323.4,0.00,14.4,16.6,"04:02:24",1
"23/05/14","04:20",0.0,14.6,98.0,1008.8,270.4,1.3,1.6,262.9,0.00,14.3,16.4,"04:13:50",1
"23/05/14","04:30",0.0,14.6,97.6,1008.8,290.2,1.3,2.2,314.4,0.00,14.3,16.6,"04:26:26",1
"23/05/14","04:40",0.0,14.6,98.1,1008.3,314.5,1.3,1.9,334.5,0.00,14.3,16.6,"04:37:24",1
"23/05/14","04:50",0.0,14.7,97.6,1008.3,282.1,0.7,1.2,313.1,0.00,14.4,16.6,"04:42:22",1
"23/05/14","05:00",0.0,14.6,98.1,1008.1,291.6,1.3,1.9,311.6,0.00,14.3,16.6,"04:58:26",1
"23/05/14","05:10",0.0,14.7,97.6,1008.1,283.6,1.2,1.8,296.1,0.00,14.4,16.5,"05:03:38",1
"23/05/14","05:20",0.0,14.6,98.2,1008.3,291.9,0.6,1.2,308.7,0.00,14.4,16.6,"05:18:50",1
"23/05/14","05:30",0.0,14.7,97.7,1008.1,295.8,1.0,1.7,264.1,0.00,14.4,16.5,"05:26:22",1
"23/05/14","05:40",0.0,14.7,98.2,1008.1,274.8,1.0,1.7,265.7,0.00,14.5,16.4,"05:38:04",1
"23/05/14","05:50",0.0,14.8,97.7,1008.1,278.1,1.3,2.5,264.0,0.00,14.5,16.5,"05:44:18",1
"23/05/14","06:00",0.0,14.7,98.2,1007.8,278.6,1.3,2.0,265.2,0.00,14.5,16.3,"05:52:24",1
"23/05/14","06:10",0.0,15.0,97.7,1008.1,269.6,0.8,1.3,260.9,0.00,14.7,16.4,"06:00:18",1
"23/05/14","06:20",0.0,14.9,98.3,1008.3,297.6,1.5,2.0,311.4,0.00,14.7,16.4,"06:15:18",1
"23/05/14","06:30",0.0,15.0,97.8,1008.1,307.7,1.6,2.6,315.9,0.00,14.7,16.3,"06:27:12",1
"23/05/14","06:40",0.0,15.1,98.3,1008.1,289.0,0.8,1.1,269.5,0.01,14.9,16.3,"06:33:42",1
"23/05/14","06:50",0.0,15.2,97.8,1008.1,271.7,1.3,1.9,265.9,0.02,14.9,16.5,"06:43:10",1
"23/05/14","07:00",0.0,15.4,98.3,1008.1,282.1,1.3,1.8,313.9,0.06,15.2,16.4,"06:50:08",1
"23/05/14","07:10",0.0,15.6,97.8,1008.3,276.4,1.5,2.9,262.1,0.06,15.3,16.4,"07:05:34",1
"23/05/14","07:20",0.0,15.6,98.3,1008.1,290.5,1.6,2.4,318.7,0.05,15.4,16.3,"07:16:48",1
"23/05/14","07:30",0.0,15.7,97.8,1008.3,295.9,1.8,3.1,318.9,0.02,15.4,16.5,"07:22:48",1
"23/05/14","07:40",0.0,15.8,98.3,1008.1,289.8,0.8,1.1,274.5,0.01,15.6,16.5,"07:30:08",1
"23/05/14","07:50",0.0,16.2,97.8,1008.1,298.0,1.1,1.3,313.9,0.03,15.9,16.4,"07:42:08",1
"23/05/14","08:00",0.0,16.1,98.3,1008.1,281.3,1.1,1.7,263.4,0.05,15.9,16.6,"07:58:00",1
"23/05/14","08:10",0.0,16.0,97.8,1008.3,311.9,1.7,2.7,306.1,0.06,15.7,16.4,"08:03:44",1
"23/05/14","08:20",0.0,16.2,98.3,1008.3,349.1,0.7,1.7,336.2,0.07,16.0,16.3,"08:10:24",1
"23/05/14","08:30",0.0,16.5,97.8,1008.1,96.0,0.6,1.1,118.4,0.10,16.2,16.5,"08:24:24",1
"23/05/14","08:40",0.0,16.1,98.2,1008.3,90.1,1.1,2.4,122.7,0.10,15.9,16.5,"08:33:36",1
"23/05/14","08:50",0.0,16.2,97.6,1008.6,74.3,1.0,2.2,342.6,0.10,15.9,16.4,"08:48:48",1
"23/05/14","09:00",0.0,16.3,97.9,1008.6,84.2,0.8,2.4,114.4,0.07,16.0,16.6,"08:51:24",1
"23/05/14","09:10",0.0,15.9,97.5,1008.6,90.7,1.1,2.8,99.5,0.08,15.5,16.6,"09:09:28",1
"23/05/14","09:20",0.0,16.3,97.4,1008.6,80.4,1.0,2.2,118.5,0.12,15.9,16.7,"09:12:16",1
"23/05/14","09:30",0.0,16.6,97.2,1008.6,84.2,1.0,2.0,103.2,0.18,16.2,16.5,"09:20:32",1
"23/05/14","09:40",0.0,16.7,96.7,1008.1,84.8,1.2,3.6,119.2,0.15,16.2,16.4,"09:36:16",1
"23/05/14","09:50",0.0,16.6,96.2,1008.3,92.1,1.3,2.6,61.2,0.12,16.0,16.7,"09:40:08",1
"23/05/14","10:00",0.0,16.8,95.7,1007.8,116.3,1.5,3.9,121.7,0.13,16.1,16.5,"09:51:44",1
"23/05/14","10:10",0.0,16.8,95.1,1007.8,111.4,1.8,3.7,110.5,0.10,16.1,16.7,"10:03:20",1
"23/05/14","10:20",0.0,17.1,94.6,1007.8,107.6,1.2,2.6,126.7,0.12,16.3,16.5,"10:12:08",1
"23/05/14","10:30",0.0,17.2,93.4,1008.1,88.2,1.5,2.7,123.2,0.11,16.2,16.4,"10:22:00",1
"23/05/14","10:40",0.0,17.5,92.2,1007.8,102.8,1.2,4.1,117.5,0.09,16.3,16.6,"10:33:28",1
"23/05/14","10:50",0.0,17.8,90.9,1007.6,81.5,0.8,1.9,87.5,0.15,16.3,16.7,"10:43:36",1
"23/05/14","11:00",0.0,17.8,89.4,1007.6,118.4,1.3,3.4,122.8,0.14,16.1,16.7,"10:59:44",1
"23/05/14","11:10",0.0,17.8,89.1,1007.6,106.4,1.2,3.3,79.8,0.13,16.0,16.6,"11:09:04",1
"23/05/14","11:20",0.0,18.2,89.5,1007.1,103.3,1.5,3.4,100.8,0.27,16.5,16.7,"11:12:40",1
"23/05/14","11:30",0.0,18.2,88.9,1007.1,87.5,1.2,3.6,96.4,0.23,16.4,16.8,"11:26:24",1
"23/05/14","11:40",0.0,18.1,88.7,1007.1,94.1,1.2,3.1,99.5,0.20,16.2,16.3,"11:32:32",1
"23/05/14","11:50",0.0,18.5,88.7,1006.9,82.9,0.8,2.7,116.9,0.22,16.6,16.8,"11:40:16",1
"23/05/14","12:00",0.0,18.4,87.6,1006.7,82.1,1.2,3.2,99.5,0.24,16.3,16.7,"11:58:56",1
"23/05/14","12:10",0.0,18.9,87.2,1006.7,90.3,1.3,3.5,109.0,0.27,16.8,16.4,"12:02:24",1
"23/05/14","12:20",0.0,18.9,86.0,1006.7,103.6,1.1,2.1,119.8,0.16,16.5,16.6,"12:11:04",1
"23/05/14","12:30",0.0,18.9,85.1,1006.4,108.2,1.6,3.5,114.7,0.13,16.4,16.9,"12:29:52",1
"23/05/14","12:40",0.0,18.8,84.5,1006.0,115.6,1.6,4.1,117.9,0.09,16.2,16.7,"12:33:52",1
"23/05/14","12:50",0.0,18.7,84.1,1006.0,100.9,2.0,3.6,91.2,0.07,16.0,16.9,"12:47:52",1
"23/05/14","13:00",0.0,18.8,84.1,1005.5,102.8,1.7,3.9,126.2,0.08,16.1,16.9,"12:50:56",1
"23/05/14","13:10",0.0,19.2,84.5,1005.7,102.5,1.6,3.4,77.5,0.23,16.6,16.8,"13:01:36",1
"23/05/14","13:20",0.0,19.0,84.0,1006.2,106.8,1.8,4.1,118.9,0.14,16.3,17.0,"13:15:36",1
"23/05/14","13:30",0.0,18.7,84.3,1005.7,101.2,1.6,3.6,129.6,0.05,16.0,16.9,"13:24:24",1
"23/05/14","13:40",0.0,18.8,84.7,1005.7,85.1,1.1,2.4,99.3,0.05,16.2,16.9,"13:31:44",1
"23/05/14","13:50",0.0,18.7,85.5,1005.7,107.6,1.8,3.6,104.4,0.07,16.3,17.0,"13:46:48",1
"23/05/14","14:00",0.0,18.4,86.3,1005.7,99.2,2.0,4.7,87.4,0.11,16.1,16.9,"13:56:00",1
"23/05/14","14:10",0.0,18.6,87.3,1005.5,85.9,1.7,3.5,106.7,0.16,16.5,16.9,"14:02:40",1
"23/05/14","14:20",0.0,18.7,87.1,1005.5,65.1,1.7,4.1,48.6,0.20,16.6,17.0,"14:17:44",1
"23/05/14","14:30",0.0,18.8,86.6,1005.2,103.4,2.3,4.5,123.3,0.20,16.6,17.0,"14:23:12",1
"23/05/14","14:40",0.0,19.3,84.7,1005.0,84.2,2.2,5.1,84.6,0.31,16.7,17.0,"14:36:08",1
"23/05/14","14:50",0.0,19.4,82.8,1005.2,88.9,2.2,4.8,123.8,0.23,16.4,17.0,"14:40:08",1
"23/05/14","15:00",0.0,19.0,81.8,1005.0,84.4,1.8,4.1,107.3,0.13,15.9,17.0,"14:54:56",1
"23/05/14","15:10",0.0,18.9,82.3,1004.8,94.9,2.0,4.3,108.2,0.15,15.9,17.3,"15:09:12",1
"23/05/14","15:20",0.0,19.0,82.2,1005.0,105.5,2.0,4.7,130.4,0.14,15.9,17.1,"15:14:16",1
"23/05/14","15:30",0.0,18.7,82.3,1004.8,74.3,1.3,4.1,113.2,0.09,15.7,17.1,"15:23:44",1
"23/05/14","15:40",0.0,18.6,82.7,1004.5,29.0,1.1,3.3,148.5,0.05,15.6,17.4,"15:35:20",1
"23/05/14","15:50",0.0,18.5,82.9,1004.8,55.9,1.0,2.2,97.6,0.04,15.6,17.0,"15:46:24",1
"23/05/14","16:00",0.0,18.3,82.8,1004.3,82.1,1.2,2.6,116.0,0.03,15.4,17.3,"15:58:32",1
"23/05/14","16:10",0.0,18.2,82.5,1004.5,51.5,1.0,2.7,66.4,0.01,15.2,17.3,"16:00:48",1
"23/05/14","16:20",0.0,18.2,82.4,1004.8,39.5,1.1,2.8,105.4,0.01,15.2,17.1,"16:14:48",1
"23/05/14","16:30",0.0,18.2,82.6,1004.1,67.0,1.1,2.9,340.8,0.02,15.2,17.2,"16:22:16",1
"23/05/14","16:40",0.0,18.2,82.6,1004.3,73.2,1.2,3.2,116.0,0.01,15.2,17.0,"16:34:08",1
"23/05/14","16:50",0.0,18.2,82.9,1004.5,81.5,1.5,2.6,87.8,0.01,15.3,17.2,"16:43:44",1
"23/05/14","17:00",0.0,18.2,83.1,1004.5,50.2,1.0,3.3,357.0,0.00,15.3,17.2,"16:50:16",1
"23/05/14","17:10",0.0,18.2,83.3,1004.5,105.5,1.6,4.3,141.1,0.00,15.4,17.2,"17:07:46",1
"23/05/14","17:20",0.0,17.7,84.5,1004.5,81.4,1.2,3.7,114.9,0.00,15.1,17.1,"17:14:10",1
"23/05/14","17:30",0.0,17.5,85.7,1004.3,341.4,1.1,2.4,117.7,0.00,15.1,17.2,"17:24:42",1
"23/05/14","17:40",0.0,17.3,86.5,1004.8,323.5,0.8,1.4,331.6,0.00,15.1,17.2,"17:34:12",1
"23/05/14","17:50",0.0,17.1,87.4,1004.8,311.8,1.0,1.4,290.7,0.00,15.0,17.2,"17:42:28",1
"23/05/14","18:00",0.0,17.1,88.3,1004.3,357.9,0.8,1.7,334.8,0.00,15.2,17.2,"17:51:38",1
"23/05/14","18:10",0.0,16.9,89.2,1004.3,65.4,0.6,1.3,25.3,0.00,15.2,17.2,"18:00:12",1
"23/05/14","18:20",0.0,16.8,89.9,1004.3,326.0,0.6,0.8,328.4,0.00,15.2,17.2,"18:11:40",1
"23/05/14","18:30",0.0,16.9,90.6,1004.5,267.8,1.9,1.9,215.4,0.00,15.4,17.1,"18:23:46",1
"23/05/14","18:40",0.0,16.9,91.3,1004.5,315.2,2.1,2.5,317.7,0.00,15.5,17.1,"18:35:04",1
"23/05/14","18:50",0.0,16.7,91.8,1004.5,310.8,1.7,2.7,315.3,0.00,15.4,17.0,"18:45:36",1
"23/05/14","19:00",0.0,16.6,92.2,1004.5,306.7,1.0,1.9,278.2,0.00,15.4,17.2,"18:54:50",1
"23/05/14","19:10",0.0,16.5,92.5,1004.5,336.7,1.3,1.9,338.7,0.00,15.3,17.1,"19:07:02",1
"23/05/14","19:20",0.0,16.7,92.6,1004.5,353.2,2.1,2.1,4.0,0.00,15.5,17.2,"19:16:10",1
"23/05/14","19:30",0.0,16.7,92.5,1004.3,98.6,0.8,0.9,121.3,0.00,15.5,17.1,"19:21:54",1
"23/05/14","19:40",0.0,16.7,92.5,1004.5,177.9,0.6,1.7,138.0,0.00,15.5,17.2,"19:37:06",1
"23/05/14","19:50",0.0,16.7,92.5,1004.8,166.1,0.6,1.2,183.1,0.00,15.5,17.2,"19:45:38",1
"23/05/14","20:00",0.0,16.6,92.6,1005.2,222.8,0.7,1.6,130.8,0.00,15.4,17.0,"19:50:18",1
"23/05/14","20:10",0.0,16.6,92.8,1005.2,311.1,2.2,3.1,309.8,0.00,15.5,17.1,"20:04:18",1
"23/05/14","20:20",0.0,16.5,93.0,1005.0,310.0,1.6,2.1,327.4,0.00,15.4,17.1,"20:10:14",1
"23/05/14","20:30",0.0,16.3,93.2,1005.2,295.8,1.2,1.7,315.2,0.00,15.2,17.0,"20:23:00",1
"23/05/14","20:40",0.0,16.3,93.4,1005.5,275.0,1.1,1.7,260.9,0.00,15.3,17.2,"20:32:22",1
"23/05/14","20:50",0.0,16.4,93.7,1005.2,311.6,1.6,2.0,315.9,0.00,15.4,17.0,"20:45:58",1
"23/05/14","21:00",0.0,16.2,93.8,1005.2,324.9,1.3,1.9,329.6,0.00,15.2,17.1,"20:57:28",1
"23/05/14","21:10",0.0,16.2,94.1,1005.2,319.6,1.5,1.9,322.3,0.00,15.3,17.2,"21:05:22",1
"23/05/14","21:20",0.0,16.1,94.2,1005.2,332.5,1.1,1.2,323.8,0.00,15.2,17.1,"21:16:10",1
"23/05/14","21:30",0.0,16.0,94.5,1005.5,312.5,1.0,1.8,351.1,0.00,15.2,17.1,"21:21:56",1
"23/05/14","21:40",0.0,15.9,94.6,1005.5,301.9,1.1,2.2,315.2,0.00,15.1,17.0,"21:35:36",1
"23/05/14","21:50",0.0,15.8,94.9,1005.2,320.0,1.5,2.2,312.7,0.00,15.0,17.2,"21:42:52",1
"23/05/14","22:00",0.0,16.0,95.0,1005.0,333.6,1.3,1.9,346.9,0.00,15.2,17.0,"21:52:48",1
"23/05/14","22:10",0.0,16.0,95.1,1005.2,323.6,1.5,2.8,339.2,0.00,15.3,16.8,"22:06:46",1
"23/05/14","22:20",0.0,16.1,95.0,1005.0,280.5,0.5,1.2,311.6,0.00,15.3,17.1,"22:15:12",1
"23/05/14","22:30",0.0,15.9,95.2,1005.2,296.8,1.3,2.0,282.0,0.00,15.2,17.0,"22:27:42",1
"23/05/14","22:40",0.0,15.9,95.2,1005.2,280.1,1.0,1.9,315.7,0.00,15.2,17.0,"22:36:48",1
"23/05/14","22:50",0.0,15.8,95.3,1005.0,302.9,1.0,1.6,253.8,0.00,15.1,17.0,"22:40:08",1
"23/05/14","23:00",0.0,15.9,95.4,1005.0,288.7,1.0,2.0,256.3,0.00,15.2,16.9,"22:53:12",1
"23/05/14","23:10",0.0,15.8,95.4,1004.5,280.4,1.3,3.2,273.1,0.00,15.1,17.0,"23:01:44",1
"23/05/14","23:20",0.0,15.9,95.4,1004.5,305.3,0.8,1.6,271.2,0.00,15.2,16.8,"23:12:50",1
"23/05/14","23:30",0.0,16.2,95.2,1004.8,292.6,0.7,2.0,122.3,0.00,15.5,16.9,"23:23:20",1
"23/05/14","23:40",0.0,16.3,95.3,1005.0,339.1,0.8,3.2,351.9,0.00,15.6,16.9,"23:38:12",1
"23/05/14","23:50",0.0,16.5,95.2,1004.8,329.1,0.7,1.6,325.6,0.00,15.8,17.2,"23:49:20",1
"23/05/14","24:00",0.0,16.5,94.9,1004.8,331.1,0.7,1.8,93.5,0.00,15.7,16.9,"23:52:08",1
